[Date Prev][Date Next][Thread Prev][Thread Next] - [Date Index][Thread Index][Author Index]
2 Line ISS Keps 7-19
- Subject: [sarex] 2 Line ISS Keps 7-19
- From: "Dave Larsen PhD" <doc@xxxxxxxxxxx>
- Date: Mon, 19 Jul 2004 05:14:10 -0700
ISS
1 25544U 98067A 04201.43593753 .00017938 00000-0 15138-3 0 2561
2 25544 51.6306 161.2254 0006367 22.6451 72.1638 15.69851768323388
----
Via the sarex mailing list at AMSAT.ORG courtesy of AMSAT-NA.
To unsubscribe, send "unsubscribe sarex" to Majordomo@amsat.org
AMSAT Home